When you browse on this site, cookies collect data to enhance your experience and personalize the content and advertising you see.
Visit our Privacy Policy to learn more. By continuing to use the site, you agree to this use of cookies and data.
  • In Deutschland
  • Länderverzeichnis
  • Für 7 Tage
  • Wassertemperatur
  • Satellitenkarten
  • Wetterkarte
  • Widgets
  • user-avatar
    Anmelden

    Stündliche Wetter North Bimini

    Heute, 18 Januar, Freitag

    Zeit Temperatur Niederschläge Wind Luftdruck Luftfeuchtigkeit
    00:00 +24°C° 0.1 mm 2 m/S 765 mmHg 64%
    01:00 +24°C° 0 mm 2 m/S 765 mmHg 63%
    02:00 +24°C° 0 mm 1 m/S 765 mmHg 63%
    03:00 +24°C° 0 mm 1 m/S 765 mmHg 62%
    04:00 +22°C° 0 mm 0 m/S 764 mmHg 61%
    05:00 +22°C° 0 mm 0 m/S 764 mmHg 61%
    06:00 +24°C° 0 mm 1 m/S 765 mmHg 61%
    07:00 +24°C° 0 mm 1 m/S 764 mmHg 66%
    08:00 +24°C° 0.1 mm 1 m/S 765 mmHg 66%
    09:00 +24°C° 0.1 mm 1 m/S 765 mmHg 67%
    10:00 +24°C° 0.1 mm 1 m/S 765 mmHg 67%
    11:00 +24°C° 0.1 mm 1 m/S 765 mmHg 67%
    12:00 +24°C° 0.1 mm 1 m/S 765 mmHg 67%
    13:00 +24°C° 0.1 mm 1 m/S 764 mmHg 67%
    14:00 +24°C° 0 mm 1 m/S 764 mmHg 67%
    15:00 +24°C° 0 mm 1 m/S 764 mmHg 67%
    16:00 +24°C° 0 mm 1 m/S 763 mmHg 66%
    17:00 +24°C° 0 mm 2 m/S 763 mmHg 67%
    18:00 +24°C° 0 mm 2 m/S 764 mmHg 67%
    19:00 +24°C° 0 mm 2 m/S 764 mmHg 67%
    20:00 +24°C° 0 mm 3 m/S 764 mmHg 66%
    21:00 +25°C° 0 mm 3 m/S 764 mmHg 66%
    22:00 +25°C° 0 mm 3 m/S 764 mmHg 66%
    23:00 +25°C° 0 mm 4 m/S 764 mmHg 65%

    Morgen, 19 Januar, Samstag

    Zeit Temperatur Niederschläge Wind Luftdruck Luftfeuchtigkeit
    00:00 +25°C° 0 mm 4 m/S 764 mmHg 64%
    01:00 +25°C° 0 mm 4 m/S 764 mmHg 63%
    02:00 +25°C° 0 mm 4 m/S 764 mmHg 63%
    03:00 +25°C° 0 mm 5 m/S 763 mmHg 62%
    04:00 +25°C° 0 mm 5 m/S 763 mmHg 62%
    05:00 +25°C° 0 mm 5 m/S 763 mmHg 63%
    06:00 +25°C° 0 mm 5 m/S 763 mmHg 63%
    07:00 +24°C° 0 mm 6 m/S 763 mmHg 64%
    08:00 +24°C° 0 mm 6 m/S 763 mmHg 65%
    09:00 +24°C° 0 mm 6 m/S 763 mmHg 66%
    10:00 +24°C° 0 mm 6 m/S 764 mmHg 66%
    11:00 +24°C° 0 mm 6 m/S 763 mmHg 66%
    12:00 +25°C° 0 mm 5 m/S 763 mmHg 65%
    13:00 +25°C° 0 mm 5 m/S 762 mmHg 65%
    14:00 +25°C° 0 mm 5 m/S 762 mmHg 64%
    15:00 +25°C° 0 mm 5 m/S 761 mmHg 63%
    16:00 +25°C° 0 mm 5 m/S 761 mmHg 62%
    17:00 +25°C° 0 mm 5 m/S 761 mmHg 63%
    18:00 +26°C° 0 mm 5 m/S 761 mmHg 65%
    19:00 +26°C° 0 mm 5 m/S 761 mmHg 66%
    20:00 +26°C° 0 mm 5 m/S 761 mmHg 69%
    21:00 +26°C° 0 mm 6 m/S 761 mmHg 72%
    22:00 +26°C° 0 mm 7 m/S 760 mmHg 75%
    23:00 +26°C° 0 mm 7 m/S 760 mmHg 77%

    übermorgen, 20 Januar, Sonntag

    Zeit Temperatur Niederschläge Wind Luftdruck Luftfeuchtigkeit
    00:00 +26°C° 0 mm 8 m/S 759 mmHg 79%
    01:00 +26°C° 0 mm 8 m/S 759 mmHg 80%
    02:00 +26°C° 0.5 mm 9 m/S 759 mmHg 80%
    03:00 +26°C° 0.5 mm 9 m/S 758 mmHg 79%
    04:00 +26°C° 0.5 mm 10 m/S 758 mmHg 78%
    05:00 +26°C° 0.6 mm 10 m/S 758 mmHg 78%
    06:00 +26°C° 0.6 mm 11 m/S 758 mmHg 78%
    07:00 +26°C° 0.6 mm 11 m/S 758 mmHg 78%
    08:00 +26°C° 0.4 mm 11 m/S 759 mmHg 78%
    09:00 +26°C° 0.4 mm 11 m/S 759 mmHg 78%
    10:00 +26°C° 0.4 mm 11 m/S 760 mmHg 78%
    11:00 +24°C° 0.3 mm 11 m/S 759 mmHg 78%
    12:00 +23°C° 0.3 mm 11 m/S 759 mmHg 78%
    13:00 +23°C° 0.3 mm 11 m/S 759 mmHg 78%
    14:00 +22°C° 0 mm 11 m/S 759 mmHg 74%
    15:00 +22°C° 0 mm 11 m/S 759 mmHg 70%
    16:00 +22°C° 0 mm 11 m/S 759 mmHg 65%
    17:00 +22°C° 0 mm 11 m/S 760 mmHg 65%
    18:00 +21°C° 0 mm 11 m/S 761 mmHg 65%
    19:00 +21°C° 0 mm 11 m/S 762 mmHg 65%
    20:00 +19°C° 0 mm 11 m/S 763 mmHg 67%
    21:00 +18°C° 0 mm 11 m/S 763 mmHg 69%
    22:00 +18°C° 0 mm 11 m/S 764 mmHg 71%
    23:00 +17°C° 0 mm 11 m/S 764 mmHg 70%

    21 Januar, Montag

    Zeit Temperatur Niederschläge Wind Luftdruck Luftfeuchtigkeit
    00:00 +17°C° 0 mm 10 m/S 764 mmHg 70%
    01:00 +17°C° 0 mm 10 m/S 765 mmHg 70%
    02:00 +17°C° 0 mm 9 m/S 764 mmHg 69%
    03:00 +17°C° 0 mm 9 m/S 764 mmHg 68%
    04:00 +17°C° 0 mm 8 m/S 764 mmHg 67%
    05:00 +17°C° 0 mm 8 m/S 765 mmHg 66%
    06:00 +18°C° 0 mm 8 m/S 765 mmHg 66%
    07:00 +18°C° 0 mm 7 m/S 766 mmHg 65%
    08:00 +18°C° 0 mm 7 m/S 766 mmHg 64%
    09:00 +20°C° 0 mm 7 m/S 767 mmHg 64%
    10:00 +20°C° 0 mm 7 m/S 768 mmHg 63%
    11:00 +20°C° 0 mm 7 m/S 768 mmHg 63%
    12:00 +20°C° 0 mm 7 m/S 767 mmHg 62%
    13:00 +20°C° 0 mm 6 m/S 767 mmHg 61%
    14:00 +20°C° 0 mm 7 m/S 767 mmHg 62%
    15:00 +21°C° 0 mm 7 m/S 767 mmHg 62%
    16:00 +21°C° 0 mm 7 m/S 767 mmHg 62%
    17:00 +21°C° 0 mm 7 m/S 767 mmHg 63%
    18:00 +21°C° 0 mm 8 m/S 767 mmHg 63%
    19:00 +21°C° 0 mm 8 m/S 768 mmHg 64%
    20:00 +21°C° 0 mm 8 m/S 768 mmHg 65%
    21:00 +21°C° 0 mm 8 m/S 768 mmHg 66%
    22:00 +21°C° 0 mm 8 m/S 769 mmHg 66%
    23:00 +21°C° 0 mm 9 m/S 768 mmHg 68%

    22 Januar, Dienstag

    Zeit Temperatur Niederschläge Wind Luftdruck Luftfeuchtigkeit
    00:00 +21°C° 0 mm 9 m/S 768 mmHg 69%
    01:00 +21°C° 0 mm 9 m/S 768 mmHg 71%
    02:00 +21°C° 0 mm 9 m/S 767 mmHg 71%
    03:00 +21°C° 0 mm 9 m/S 767 mmHg 71%
    04:00 +22°C° 0 mm 9 m/S 767 mmHg 71%
    05:00 +22°C° 0 mm 9 m/S 767 mmHg 72%
    06:00 +22°C° 0 mm 10 m/S 768 mmHg 72%
    07:00 +22°C° 0 mm 10 m/S 768 mmHg 72%
    08:00 +22°C° 0.1 mm 10 m/S 769 mmHg 72%
    09:00 +22°C° 0.1 mm 10 m/S 769 mmHg 72%
    10:00 +22°C° 0.1 mm 10 m/S 770 mmHg 72%
    11:00 +22°C° 0.1 mm 10 m/S 769 mmHg 72%
    12:00 +22°C° 0.1 mm 10 m/S 769 mmHg 73%
    13:00 +22°C° 0.1 mm 10 m/S 769 mmHg 73%
    14:00 +23°C° 0.1 mm 10 m/S 768 mmHg 73%
    15:00 +23°C° 0.1 mm 10 m/S 768 mmHg 73%
    16:00 +23°C° 0.1 mm 10 m/S 767 mmHg 73%
    17:00 +23°C° 0.1 mm 10 m/S 768 mmHg 73%
    18:00 +23°C° 0.1 mm 10 m/S 768 mmHg 72%
    19:00 +23°C° 0.1 mm 11 m/S 768 mmHg 72%
    20:00 +23°C° 0.1 mm 11 m/S 768 mmHg 73%
    21:00 +23°C° 0.1 mm 11 m/S 768 mmHg 73%
    22:00 +23°C° 0.1 mm 11 m/S 768 mmHg 73%
    23:00 +23°C° 0 mm 11 m/S 768 mmHg 73%

    23 Januar, Mittwoch

    Zeit Temperatur Niederschläge Wind Luftdruck Luftfeuchtigkeit
    00:00 +24°C° 0 mm 11 m/S 767 mmHg 72%
    01:00 +24°C° 0 mm 11 m/S 767 mmHg 71%
    02:00 +24°C° 0.1 mm 10 m/S 767 mmHg 71%
    03:00 +24°C° 0.1 mm 10 m/S 766 mmHg 71%
    04:00 +24°C° 0.1 mm 10 m/S 766 mmHg 71%
    05:00 +24°C° 0.1 mm 10 m/S 766 mmHg 71%
    06:00 +24°C° 0.1 mm 10 m/S 766 mmHg 71%
    07:00 +24°C° 0.1 mm 10 m/S 766 mmHg 71%
    08:00 +24°C° 0 mm 10 m/S 767 mmHg 71%
    09:00 +24°C° 0 mm 10 m/S 767 mmHg 71%
    10:00 +24°C° 0 mm 9 m/S 767 mmHg 72%
    11:00 +24°C° 0 mm 9 m/S 767 mmHg 72%
    12:00 +26°C° 0 mm 9 m/S 766 mmHg 73%
    13:00 +26°C° 0 mm 8 m/S 765 mmHg 73%
    14:00 +26°C° 0 mm 8 m/S 765 mmHg 74%
    15:00 +26°C° 0 mm 8 m/S 765 mmHg 74%
    16:00 +26°C° 0 mm 7 m/S 764 mmHg 75%
    17:00 +26°C° 0 mm 8 m/S 764 mmHg 76%
    18:00 +26°C° 0 mm 8 m/S 764 mmHg 77%
    19:00 +26°C° 0 mm 8 m/S 764 mmHg 78%
    20:00 +26°C° 0 mm 8 m/S 764 mmHg 79%
    21:00 +26°C° 0 mm 8 m/S 764 mmHg 81%
    22:00 +26°C° 0 mm 8 m/S 764 mmHg 82%
    23:00 +26°C° 0.1 mm 8 m/S 764 mmHg 82%
    Mehr zeigen